Погода в Караколе

Киргизия     42°29′05″N   78°23′30″E
В апреле 2022 года жителям России запретили посещать сайт meteo.paraplan.net по решению Генеральной прокуратуры. Аудитория сайта уменьшилась в 10 раз. Владельцы сайта не видят смысла в поддержке погодного сервера в таких условиях. Сайт будет закрыт в октябре.
темп.,
°C
ветер,
м/с
пор.,
м/с
влажн.,
%
обл.,
%
осадки,
мм/ч
давл.,
гПа
погр.,
м
6 октября, чт
чт600:00+4юв22478 0.1 102723
03:00+4юв224897 0.0 102718
06:00+4ююв225020 0.0 102720
09:00+7ссз114012 0.0 1027285
12:00+11сз3133100 0.0 1024805
15:00+12сз323196 0.0 10231137
18:00+8з114991 0.0 102414
21:00+7юв2248100 0.0 102615
7 октября, пт
пт700:00+6ююв224634 0.0 102518
03:00+6ююв22485 0.0 102417
06:00+5ююв22475 0.0 102513
09:00+9сз11385 0.0 1023260
12:00+12сз323755 0.0 1021980
15:00+13сз323659 0.0 10191178
18:00+9зсз115496 0.0 102111
21:00+8ююв1253100 0.0 102211
8 октября, сб
сб800:00+7ю2248100 0.0 102212
03:00+7ю115583 0.0 102311
06:00+6ю225044 0.0 102315
09:00+10зсз124197 0.0 1023263
12:00+13сз3235100 0.0 1022986
15:00+13зсз3335100 0.1 10211379
18:00+9юв455892 0.8 1023164
21:00+8ююв33507 0.0 102432
9 октября, вс
вс900:00+8ююв33448 0.0 102423
03:00+7ююв334399 0.0 102326
06:00+6ююв33440 0.0 102327
09:00+11зсз11330 0.0 1023425
12:00+14сз32290 0.0 10211147
15:00+15сз43292 0.0 10181330
18:00+10зсз11445 0.0 102010
21:00+8юв23475 0.0 102334
10 октября, пн
пн1000:00+7ююв12505 0.0 102317
03:00+5ю12565 0.0 102412
06:00+5ююв12635 0.0 102512
09:00+8ссз12505 0.0 1025315
12:00+12ссз22395 0.0 10231250
15:00+13ссз22332 0.0 10211860
18:00+9ссз22413 0.1 102322
21:00+7юв22450 0.0 102418